Weather History for Friday Harbor, WA

Change the Weather History Date:

Saturday, January 19, 2013

  Actual Average Record
Temperature  
Mean Temperature 38 °F -  
Max Temperature 41 °F 44 °F 57 °F (2005)
Min Temperature 34 °F 36 °F 23 °F (2012)
Degree Days  
Heating Degree Days 28    
Moisture  
Dew Point 35 °F    
Average Humidity 91    
Maximum Humidity 100    
Minimum Humidity 79    
Precipitation  
Precipitation 0.00 in - - ()
Sea Level Pressure  
Sea Level Pressure 30.38 in    
Wind  
Wind Speed 2 mph (North)    
Max Wind Speed 7 mph    
Max Gust Speed -    
Visibility 10 miles    
Events      
Averages and records for this station are not official NWS values.
T = Trace of Precipitation, MM = Missing Value Source: NWS Daily Summary

Daily Weather History Graph

Daily Weather History Graph

Search for Another Location

Airport:

Trip Planner

Search our weather history database for the weather conditions in past years. The results will help you decide how hot, cold, wet, or windy it might be!

Date:

Astronomy

Jan. 19, 2013 Rise Set
Actual Time 7:55 AM PST 4:50 PM PST
Civil Twilight 7:20 AM PST 5:26 PM PST
Nautical Twilight 6:41 AM PST 6:04 PM PST
Astronomical Twilight 6:04 AM PST 6:42 PM PST
Moon 11:25 AM PST (1/19) 1:28 AM PST (1/19)
Length of Visible Light 10h 05m
Length of Day
8h 55m
First Quarter, 58% of the Moon is Illuminated
Jan 19
First Quarter
Jan 26
Full
Feb 3
Last Quarter
Feb 9
New
Feb 17
First Quarter

Hourly Weather History & Observations

Time (PST) Temp. Windchill Dew Point Humidity Pressure Visibility Wind Dir Wind Speed Gust Speed Precip Events Conditions
12:10 AM 35.6 °F - 35.6 °F 100% 30.36 in 8.0 mi Calm Calm - N/A   Overcast
12:53 AM 37.0 °F - 36.0 °F 96% 30.37 in 9.0 mi Calm Calm - N/A   Overcast
1:53 AM 37.0 °F - 36.0 °F 96% 30.37 in 9.0 mi Calm Calm - N/A   Overcast
2:53 AM 37.9 °F - 36.0 °F 93% 30.38 in 10.0 mi Calm Calm - N/A   Overcast
3:53 AM 39.0 °F - 36.0 °F 89% 30.38 in 9.0 mi Calm Calm - N/A   Overcast
4:09 AM 37.4 °F 33.8 °F 35.6 °F 93% 30.37 in 9.0 mi North 4.6 mph - N/A   Overcast
4:53 AM 37.9 °F 35.5 °F 35.1 °F 89% 30.37 in 8.0 mi North 3.5 mph - N/A   Overcast
5:53 AM 37.9 °F - 35.1 °F 89% 30.37 in 10.0 mi Calm Calm - N/A   Overcast
6:53 AM 37.9 °F 34.4 °F 35.1 °F 89% 30.38 in 10.0 mi North 4.6 mph - N/A   Overcast
7:53 AM 37.0 °F - 34.0 °F 89% 30.38 in 10.0 mi Calm Calm - N/A   Overcast
8:53 AM 37.0 °F 32.4 °F 34.0 °F 89% 30.40 in 10.0 mi Variable 5.8 mph - N/A   Overcast
9:53 AM 37.0 °F 32.4 °F 35.1 °F 93% 30.41 in 10.0 mi North 5.8 mph - N/A   Overcast
10:53 AM 37.9 °F 32.7 °F 35.1 °F 89% 30.40 in 10.0 mi North 6.9 mph - N/A   Overcast
11:53 AM 39.9 °F 36.7 °F 35.1 °F 83% 30.39 in 10.0 mi North 4.6 mph - N/A   Mostly Cloudy
12:07 PM 41.0 °F 37.1 °F 35.6 °F 81% 30.38 in 10.0 mi NNE 5.8 mph - N/A   Mostly Cloudy
12:48 PM 41.0 °F 37.1 °F 35.6 °F 81% 30.37 in 10.0 mi NW 5.8 mph - N/A   Scattered Clouds
12:53 PM 41.0 °F 38.0 °F 35.1 °F 79% 30.38 in 10.0 mi North 4.6 mph - N/A   Scattered Clouds
1:53 PM 39.9 °F 35.1 °F 35.1 °F 83% 30.37 in 10.0 mi North 6.9 mph - N/A   Clear
2:53 PM 39.9 °F 36.7 °F 35.1 °F 83% 30.36 in 10.0 mi Variable 4.6 mph - N/A   Clear
3:53 PM 39.0 °F 34.8 °F 35.1 °F 86% 30.37 in 10.0 mi NNW 5.8 mph - N/A   Clear
4:53 PM 37.9 °F 33.5 °F 35.1 °F 89% 30.37 in 10.0 mi NW 5.8 mph - N/A   Clear
5:53 PM 37.9 °F 34.4 °F 35.1 °F 89% 30.37 in 10.0 mi North 4.6 mph - N/A   Clear
6:43 PM 37.4 °F - 35.6 °F 93% 30.37 in 10.0 mi Calm Calm - N/A   Partly Cloudy
6:53 PM 37.0 °F 34.5 °F 35.1 °F 93% 30.38 in 10.0 mi Variable 3.5 mph - N/A   Scattered Clouds
7:00 PM 37.4 °F - 35.6 °F 93% 30.37 in 10.0 mi Calm Calm - N/A   Mostly Cloudy
7:09 PM 37.4 °F 34.9 °F 35.6 °F 93% 30.37 in 10.0 mi North 3.5 mph - N/A   Scattered Clouds
7:53 PM 37.0 °F - 35.1 °F 93% 30.38 in 10.0 mi Calm Calm - N/A   Partly Cloudy
8:53 PM 36.0 °F - 35.1 °F 97% 30.39 in 10.0 mi Calm Calm - N/A   Clear
9:20 PM 37.4 °F - 35.6 °F 93% 30.38 in 10.0 mi Calm Calm - N/A   Scattered Clouds
9:37 PM 35.6 °F - 35.6 °F 100% 30.39 in 9.0 mi Calm Calm - N/A   Mostly Cloudy
9:53 PM 37.0 °F - 36.0 °F 96% 30.39 in 10.0 mi Calm Calm - N/A   Mostly Cloudy
10:07 PM 35.6 °F - 33.8 °F 93% 30.38 in 9.0 mi Calm Calm - N/A   Scattered Clouds
10:53 PM 34.0 °F - 33.1 °F 96% 30.39 in 9.0 mi Calm Calm - N/A   Partly Cloudy
11:53 PM 37.0 °F - 36.0 °F 96% 30.40 in 10.0 mi Calm Calm - N/A   Clear